sat.trackr.live / text

‹ back to catalog

STARLINK-30153

NORAD 57510 · 2023-113R

PAYLOAD ACTIVE UNKNOWN

§ Identity

Operator
Country
US
Launch date
2023-08-07
Launch site
AFETR
Launch vehicle
Mass (kg)
RCS (m²)

Purposes: comms

External: N2YO · Heavens-Above · Gunter

§ Orbital elements

Epoch: 2026-09-20T13:39:52.533792Z

Period
94.27 min
Inclination
43.0057°
Eccentricity
0.0001568
Mean motion
15.27577204 rev/d
Perigee alt
482.0 km
Apogee alt
484.1 km
Semi-major
6,861.2 km
B*
3.4366e-6
RAAN
355.1534°
Arg perigee
264.5449°
Mean anomaly
95.5224°
Rev number
17,337

§ Raw data

STARLINK-301531 57510U 23113R   26263.56935803 -.00000168  00000+0  34366-5 0  99982 57510  43.0057 355.1534 0001568 264.5449  95.5224 15.27577204173377

JSON: /api/v1/satellites/57510 · /tle

For live sub-satellite position, see the globe view (requires WebGL).

§ Visibility from observer

Set your observer location to see the next 7 days of passes ≥ 10°. The values pass through the URL so the page stays shareable.

No JS? Fill the form by hand. The geolocation button needs JavaScript.